Flag for Germany Weather past 2 weeks in Heinsberg, North Rhine-Westphalia, Germany

Now
37 °F

Clear.


Feels Like: 33 °F
Forecast: 40 / 62 °F
Wind: 5 mph from Northeast

Location: Maastricht Airport Zuid Limburg

Current Time: Apr 19, 2015 at 6:48:01 AM

Latest Report: Apr 19, 2015 at 6:00 AM


Visibility: 8 mi

Pressure: 30.20 "Hg

Humidity: 93%

Dew point: 35 °F

Location of HeinsbergLocation

Historic Weather in Heinsberg — Graph

°F

Heinsberg temperature yesterday

Maximum temperature yesterday: 56 °F (at 4:00 PM)
Minimum temperature yesterday: 35 °F (at 7:00 AM)
Average temperature yesterday: 47 °F

Past Weeks' High & Low Weather Summary

 TemperatureHumidityPressure
High75 °F (Apr 15, 6:00 PM)99% (Apr 7, 4:00 AM)30.66 "Hg (Apr 7, 4:00 AM)
Low33 °F (Apr 5, 8:00 AM)27% (Apr 10, 3:00 PM)29.93 "Hg (Apr 16, 7:00 PM)
Average50 °F67%30.27 "Hg
* Reported Apr 4 5:00 AM — Apr 19 5:00 AM, Heinsberg, Weather by CustomWeather, © 2015

Note: Actual official high and low records may vary slightly from our data, if they occured in-between our weather recording intervals... More about our weather records

Advertising

Heinsberg weather history for previous 24 hours

 ConditionsComfort  
Time TempWeatherWind HumidityBarometerVisibility
5:00 AM
Sun, Apr 19
38 °FClear.5 mph90%30.21 "Hg12 mi
4:00 AM38 °FClear.5 mph86%30.22 "Hg16 mi
3:00 AM39 °FClear.5 mph81%30.23 "Hg19 mi
2:00 AM41 °FClear.3 mph76%30.26 "Hg25 mi
1:00 AM44 °FClear.6 mph68%30.27 "Hg19 mi
12:00 AM42 °FClear.5 mph65%30.27 "Hg22 mi
11:00 PM
Sat, Apr 18
44 °FClear.3 mph60%30.28 "Hg25 mi
10:00 PM46 °FClear.2 mph55%30.28 "Hg25 mi
9:00 PM48 °FClear.2 mph51%30.27 "Hg28 mi
8:00 PM53 °FSunny.5 mph42%30.27 "Hg25 mi
7:00 PM55 °FSunny.6 mph40%30.27 "Hg22 mi
6:00 PM56 °FPassing clouds.7 mph37%30.27 "Hg25 mi
5:00 PM56 °FSunny.6 mph38%30.28 "Hg17 mi
4:00 PM56 °FSunny.7 mph39%30.30 "Hg19 mi
3:00 PM55 °FPassing clouds.7 mph39%30.32 "Hg19 mi
2:00 PM55 °FSunny.9 mph40%30.33 "Hg18 mi
1:00 PM53 °FSunny.8 mph41%30.33 "Hg22 mi
12:00 PM54 °FPassing clouds.8 mph45%30.34 "Hg19 mi
11:00 AM49 °FSunny.5 mph63%30.34 "Hg17 mi
10:00 AM46 °FSunny.5 mph74%30.34 "Hg17 mi
9:00 AM43 °FPassing clouds.5 mph78%30.33 "Hg14 mi
8:00 AM40 °FSunny.2 mph84%30.32 "Hg14 mi
7:00 AM35 °FSunny.3 mph90%30.29 "Hg16 mi
6:00 AM36 °FClear.5 mph88%30.28 "Hg16 mi
Weather by CustomWeather, © 2015

See weather overviewHow to use our weather pages